FW8459 Weather Reports


Display with metric or nautical units.
time (UTC)temp
F
wind
direction
speed
MPH
gust
MPH
rain 1hr
in
rain 24hr
in
rain mn
in
humidity
%
barometer
mb
20220924193901 38 261 0.0 0.0 0.00 0.00 0.00 97 1016.6
20220924193400 38 252 0.0 0.0 0.00 0.00 0.00 97 1016.6
20220924192900 38 265 0.0 0.0 0.00 0.00 0.00 97 1016.5
20220924192400 38 263 0.0 0.0 0.00 0.00 0.00 97 1016.5
20220924191858 37 266 0.0 0.0 0.00 0.00 0.00 97 1016.6
20220924191357 37 248 0.0 0.0 0.00 0.00 0.00 97 1016.4
20220924190857 37 251 0.0 1.0 0.00 0.00 0.00 97 1016.3
20220924190355 37 253 0.0 0.0 0.00 0.00 0.00 96 1016.5
20220924185854 37 265 0.0 0.0 0.00 0.00 0.00 96 1016.2
20220924185353 37 226 0.0 1.0 0.00 0.00 0.00 96 1016.2
20220924184852 38 244 1.0 1.0 0.00 0.00 0.00 96 1016.1
20220924184351 38 140 1.0 2.0 0.00 0.00 0.00 96 1016.2
20220924183850 39 230 0.0 0.0 0.00 0.00 0.00 96 1015.9
20220924183350 39 247 0.0 1.0 0.00 0.00 0.00 96 1015.9
20220924182850 39 251 0.0 0.0 0.00 0.00 0.00 96 1016.0
20220924182350 39 253 0.0 0.0 0.00 0.00 0.00 96 1015.6
20220924181849 39 257 0.0 0.0 0.00 0.00 0.00 96 1016.0
20220924181349 39 263 0.0 0.0 0.00 0.00 0.00 95 1015.8
20220924180849 40 264 0.0 0.0 0.00 0.00 0.00 96 1015.7
20220924180347 39 263 0.0 0.0 0.00 0.00 0.00 95 1015.7
20220924175847 40 265 0.0 0.0 0.00 0.00 0.00 95 1015.7
20220924175345 40 253 0.0 0.0 0.00 0.00 0.00 95 1015.8
20220924174844 40 255 0.0 0.0 0.00 0.00 0.00 95 1016.0
20220924174343 41 243 1.0 1.0 0.00 0.00 0.00 95 1015.8
20220924173841 41 254 0.0 0.0 0.00 0.00 0.00 95 1015.7
20220924173340 40 277 0.0 0.0 0.00 0.00 0.00 95 1016.0
20220924172838 41 256 0.0 0.0 0.00 0.00 0.00 95 1015.9
20220924172334 41 253 0.0 0.0 0.00 0.00 0.00 95 1015.8
20220924171834 41 249 0.0 0.0 0.00 0.00 0.00 95 1016.0
20220924171330 41 246 0.0 0.0 0.00 0.00 0.00 95 1015.8
20220924170828 42 258 0.0 0.0 0.00 0.00 0.00 95 1015.8
20220924170328 42 231 1.0 1.0 0.00 0.00 0.00 94 1015.8
20220924165827 42 262 0.0 0.0 0.00 0.00 0.00 94 1015.9
20220924165327 42 259 0.0 0.0 0.00 0.00 0.00 94 1016.1
20220924164825 42 235 0.0 1.0 0.00 0.00 0.00 94 1016.0
20220924164323 42 263 0.0 0.0 0.00 0.00 0.00 94 1015.9
20220924163823 42 262 0.0 0.0 0.00 0.00 0.00 93 1016.3
20220924163321 42 265 0.0 0.0 0.00 0.00 0.00 93 1016.2
20220924162821 43 264 0.0 0.0 0.00 0.00 0.00 93 1016.1
20220924162320 43 252 1.0 1.0 0.00 0.00 0.00 93 1016.3
20220924161819 43 255 0.0 0.0 0.00 0.00 0.00 93 1016.1
20220924161319 43 250 0.0 1.0 0.00 0.00 0.00 93 1016.2
20220924160820 43 256 0.0 0.0 0.00 0.00 0.00 93 1016.2
20220924160318 44 256 0.0 0.0 0.00 0.00 0.00 93 1016.2
20220924155817 44 222 0.0 0.0 0.00 0.00 0.00 93 1016.1
20220924155316 44 250 0.0 0.0 0.00 0.00 0.00 93 1016.0
20220924154815 44 237 0.0 0.0 0.00 0.00 0.00 93 1016.1
20220924154314 44 247 0.0 1.0 0.00 0.00 0.00 93 1016.2
20220924153814 44 244 0.0 0.0 0.00 0.00 0.00 93 1016.0
20220924153315 44 257 0.0 0.0 0.00 0.00 0.00 93 1016.2
20220924152813 44 244 0.0 0.0 0.00 0.00 0.00 94 1016.2
20220924152312 44 264 0.0 0.0 0.00 0.00 0.00 94 1016.3
20220924151811 44 260 0.0 0.0 0.00 0.00 0.00 94 1016.1
20220924151310 44 264 0.0 0.0 0.00 0.00 0.00 94 1016.1
20220924150809 44 264 0.0 0.0 0.00 0.00 0.00 94 1016.3
20220924150309 44 267 0.0 0.0 0.00 0.00 0.00 94 1016.1
20220924145808 44 266 0.0 0.0 0.00 0.00 0.00 94 1016.1
20220924145308 44 265 0.0 0.0 0.00 0.00 0.00 94 1016.2
20220924144809 44 244 0.0 0.0 0.00 0.00 0.00 94 1016.3
20220924144308 44 259 0.0 0.0 0.00 0.00 0.00 94 1016.4
20220924143807 44 256 0.0 0.0 0.00 0.00 0.00 94 1016.3
20220924143305 44 265 0.0 0.0 0.00 0.00 0.00 94 1016.6
20220924142805 43 267 0.0 0.0 0.00 0.00 0.00 94 1016.4
20220924142305 44 259 0.0 0.0 0.00 0.00 0.00 94 1016.7
20220924141802 43 265 0.0 0.0 0.00 0.00 0.00 94 1016.6
20220924141300 43 259 0.0 0.0 0.00 0.00 0.00 94 1016.5
20220924140800 42 257 0.0 0.0 0.00 0.00 0.00 94 1016.5
20220924140259 42 268 0.0 0.0 0.00 0.00 0.00 94 1016.5
20220924135758 42 261 0.0 0.0 0.00 0.00 0.00 94 1016.5
20220924135257 42 265 0.0 0.0 0.00 0.00 0.00 94 1016.5
20220924134755 42 259 0.0 0.0 0.00 0.00 0.00 93 1016.4
20220924134253 42 259 0.0 0.0 0.00 0.00 0.00 93 1016.2
20220924133753 42 265 0.0 0.0 0.00 0.00 0.00 93 1016.4
20220924133251 42 263 0.0 0.0 0.00 0.00 0.00 93 1016.3
20220924132750 42 259 0.0 0.0 0.00 0.00 0.00 93 1016.6
20220924132250 43 259 0.0 0.0 0.00 0.00 0.00 93 1016.3
20220924131749 43 266 0.0 0.0 0.00 0.00 0.00 92 1016.2
20220924131248 43 257 0.0 0.0 0.00 0.00 0.00 92 1016.4
20220924130748 43 255 0.0 0.0 0.00 0.00 0.00 92 1016.4
20220924130247 43 255 0.0 0.0 0.00 0.00 0.00 92 1016.4
20220924125746 44 260 0.0 0.0 0.00 0.00 0.00 92 1016.4
20220924125244 44 262 0.0 0.0 0.00 0.00 0.00 92 1016.3
20220924124744 44 277 0.0 0.0 0.00 0.00 0.00 92 1016.3
20220924124242 44 254 0.0 0.0 0.00 0.00 0.00 92 1016.4
20220924123740 43 247 1.0 1.0 0.00 0.00 0.00 92 1016.1
20220924123240 43 248 1.0 1.0 0.00 0.00 0.00 92 1016.4
20220924122739 43 259 0.0 0.0 0.00 0.00 0.00 91 1016.1
20220924122237 44 254 0.0 0.0 0.00 0.00 0.00 91 1016.0
20220924121736 44 240 1.0 1.0 0.00 0.00 0.00 91 1016.0
20220924121236 44 262 0.0 0.0 0.00 0.00 0.00 91 1016.1
20220924120735 44 253 1.0 1.0 0.00 0.00 0.00 91 1016.0
20220924120233 44 259 1.0 1.0 0.00 0.00 0.00 91 1015.9
20220924115733 44 262 0.0 0.0 0.00 0.00 0.00 91 1016.1
20220924115233 44 255 0.0 0.0 0.00 0.00 0.00 91 1015.9
20220924114732 44 256 0.0 0.0 0.00 0.00 0.00 91 1016.0
20220924114231 44 265 0.0 0.0 0.00 0.00 0.00 90 1016.0
20220924113730 44 263 0.0 0.0 0.00 0.00 0.00 89 1016.0
20220924113228 45 263 0.0 0.0 0.00 0.00 0.00 89 1016.0
20220924112727 45 267 0.0 0.0 0.00 0.00 0.00 89 1015.9
20220924112228 46 253 0.0 0.0 0.00 0.00 0.00 89 1016.2
20220924111726 46 239 1.0 1.0 0.00 0.00 0.00 89 1016.0
20220924111225 45 256 0.0 0.0 0.00 0.00 0.00 89 1016.2
20220924110723 46 259 0.0 0.0 0.00 0.00 0.00 88 1016.0
20220924110222 46 260 0.0 0.0 0.00 0.00 0.00 88 1016.0
20220924105720 47 261 0.0 0.0 0.00 0.00 0.00 87 1016.0
20220924105218 47 255 0.0 0.0 0.00 0.00 0.00 87 1015.9
20220924104718 47 258 0.0 0.0 0.00 0.00 0.00 87 1015.9
20220924104217 47 243 0.0 0.0 0.00 0.00 0.00 87 1015.8
20220924103715 48 256 0.0 0.0 0.00 0.00 0.00 87 1015.8
20220924103214 48 257 0.0 0.0 0.00 0.00 0.00 87 1015.8
20220924102712 48 248 0.0 0.0 0.00 0.00 0.00 87 1015.6
20220924102211 48 251 0.0 0.0 0.00 0.00 0.00 86 1015.7
20220924101709 48 255 0.0 0.0 0.00 0.00 0.00 86 1015.6
20220924101208 48 255 0.0 0.0 0.00 0.00 0.00 86 1015.6
20220924100708 49 257 0.0 0.0 0.00 0.00 0.00 86 1015.5
20220924100207 49 246 0.0 0.0 0.00 0.00 0.00 86 1015.2
20220924095706 49 249 0.0 1.0 0.00 0.00 0.00 85 1015.3
20220924095206 50 260 0.0 0.0 0.00 0.00 0.00 84 1015.1
20220924094706 50 277 1.0 1.0 0.00 0.00 0.00 84 1015.0
20220924094204 50 256 0.0 0.0 0.00 0.00 0.00 83 1015.2
20220924093702 51 236 0.0 1.0 0.00 0.00 0.00 83 1015.2
20220924093202 51 268 2.0 3.0 0.00 0.00 0.00 83 1015.0
20220924092700 51 247 0.0 1.0 0.00 0.00 0.00 83 1014.9
20220924092159 51 253 0.0 0.0 0.00 0.00 0.00 83 1014.7
20220924091655 52 258 0.0 1.0 0.00 0.00 0.00 83 1014.5
20220924091155 52 243 2.0 3.0 0.00 0.00 0.00 83 1014.7
20220924090655 52 261 1.0 1.0 0.00 0.00 0.00 84 1014.7
20220924090155 52 257 1.0 1.0 0.00 0.00 0.00 84 1014.4
20220924085653 52 161 3.0 5.0 0.00 0.00 0.00 85 1014.5
20220924085152 53 232 2.0 2.0 0.00 0.00 0.00 85 1014.5
20220924084650 53 257 0.0 0.0 0.00 0.00 0.00 84 1014.1
20220924084149 53 301 1.0 1.0 0.00 0.00 0.00 83 1014.0
20220924083648 53 218 2.0 2.0 0.00 0.00 0.00 82 1014.1
20220924083147 54 249 3.0 5.0 0.00 0.00 0.00 81 1014.0
20220924082647 54 234 3.0 3.0 0.00 0.00 0.00 80 1013.9
20220924082146 55 238 2.0 2.0 0.00 0.00 0.00 79 1013.9
20220924081647 54 242 2.0 5.0 0.00 0.00 0.00 80 1013.5
20220924081147 54 232 4.0 5.0 0.00 0.00 0.00 81 1013.7
20220924080645 54 236 1.0 2.0 0.00 0.00 0.00 81 1013.7
20220924080145 55 250 0.0 1.0 0.00 0.00 0.00 81 1013.3
20220924075642 55 234 2.0 2.0 0.00 0.00 0.00 81 1013.1
20220924075140 55 203 3.0 3.0 0.00 0.00 0.00 80 1013.1
20220924074639 55 270 1.0 1.0 0.00 0.00 0.00 80 1013.0
20220924074140 55 245 1.0 1.0 0.00 0.00 0.00 79 1013.0
20220924073638 56 215 3.0 3.0 0.00 0.00 0.00 79 1013.1
20220924073138 56 219 2.0 2.0 0.00 0.00 0.00 78 1013.3
20220924072638 56 277 2.0 2.0 0.00 0.00 0.00 77 1012.9
20220924072136 57 250 3.0 5.0 0.00 0.00 0.00 77 1012.8
20220924071636 57 247 1.0 2.0 0.00 0.00 0.00 76 1012.7
20220924071134 58 208 4.0 6.0 0.00 0.00 0.00 75 1012.7
20220924070632 58 221 4.0 5.0 0.00 0.00 0.00 74 1012.6
20220924070132 58 208 5.0 7.0 0.00 0.00 0.00 74 1012.7
20220924065631 58 247 4.0 5.0 0.00 0.00 0.00 73 1012.9
20220924065130 58 301 2.0 3.0 0.00 0.00 0.00 73 1012.9
20220924064628 58 229 3.0 3.0 0.00 0.00 0.00 74 1012.7
20220924064128 58 212 3.0 3.0 0.00 0.00 0.00 73 1012.5
20220924063627 57 237 3.0 5.0 0.00 0.00 0.00 74 1012.3
20220924063127 58 247 5.0 8.0 0.00 0.00 0.00 73 1012.5
20220924062626 57 251 2.0 3.0 0.00 0.00 0.00 74 1012.4
20220924062125 58 217 4.0 8.0 0.00 0.00 0.00 74 1012.4
20220924061624 57 240 4.0 6.0 0.00 0.00 0.00 75 1012.3
20220924061124 57 243 6.0 7.0 0.00 0.00 0.00 75 1012.4
20220924060622 58 236 5.0 7.0 0.00 0.00 0.00 73 1012.3
20220924060120 59 214 5.0 7.0 0.00 0.00 0.00 69 1011.9
20220924055620 60 222 6.0 10.0 0.00 0.00 0.00 64 1011.7
20220924055118 60 229 4.0 5.0 0.00 0.00 0.00 63 1011.7
20220924054616 60 230 7.0 10.0 0.00 0.00 0.00 63 1011.6
20220924054116 58 271 9.0 11.0 0.00 0.00 0.00 66 1011.6
20220924053614 58 187 5.0 8.0 0.00 0.00 0.00 67 1011.7
20220924053114 58 302 5.0 7.0 0.00 0.00 0.00 66 1011.7
20220924052613 58 185 7.0 8.0 0.00 0.00 0.00 63 1011.7
20220924052112 58 242 7.0 9.0 0.00 0.00 0.00 62 1011.6
20220924051611 58 157 7.0 10.0 0.00 0.00 0.00 62 1011.7
20220924051109 58 241 3.0 3.0 0.00 0.00 0.00 62 1011.5
20220924050608 58 180 4.0 6.0 0.00 0.00 0.00 62 1011.4
20220924050108 60 215 7.0 8.0 0.00 0.00 0.00 60 1011.4
20220924045607 60 236 5.0 7.0 0.00 0.00 0.00 59 1011.4
20220924045105 61 218 3.0 3.0 0.00 0.00 0.00 59 1011.3
20220924044604 62 243 7.0 9.0 0.00 0.00 0.00 59 1011.1
20220924044102 63 234 4.0 7.0 0.00 0.00 0.00 57 1011.2
20220924043600 63 226 3.0 3.0 0.00 0.00 0.00 61 1011.1
20220924043100 64 221 7.0 9.0 0.00 0.00 0.00 58 1011.4
20220924042558 63 217 7.0 11.0 0.00 0.00 0.00 56 1011.3
20220924042058 64 206 5.0 7.0 0.00 0.00 0.00 57 1011.2
20220924041558 65 263 3.0 5.0 0.00 0.00 0.00 57 1011.0
20220924041056 65 207 4.0 5.0 0.00 0.00 0.00 60 1011.0
20220924040556 64 187 5.0 7.0 0.00 0.00 0.00 63 1010.8
20220924040054 64 231 3.0 3.0 0.00 0.00 0.00 65 1011.1
20220924035554 64 187 7.0 8.0 0.00 0.00 0.00 64 1010.9
20220924035053 63 209 5.0 6.0 0.00 0.00 0.00 64 1011.1
20220924034553 63 208 5.0 7.0 0.00 0.00 0.00 65 1011.3
20220924034052 63 168 5.0 7.0 0.00 0.00 0.00 62 1011.2
20220924033551 64 252 3.0 6.0 0.00 0.00 0.00 60 1011.3
20220924033049 64 263 5.0 9.0 0.00 0.00 0.00 58 1011.2
20220924032549 65 239 6.0 7.0 0.00 0.00 0.00 53 1011.3
20220924032048 65 180 7.0 9.0 0.00 0.00 0.00 52 1011.3
20220924031547 64 195 4.0 6.0 0.00 0.00 0.00 60 1011.2
20220924031047 64 230 6.0 8.0 0.00 0.00 0.00 59 1011.2
20220924030547 65 232 3.0 5.0 0.00 0.00 0.00 58 1010.9
20220924030046 65 237 4.0 8.0 0.00 0.00 0.00 57 1011.3
20220924025544 65 181 5.0 8.0 0.00 0.00 0.00 57 1011.3
20220924025044 64 238 3.0 5.0 0.00 0.00 0.00 60 1011.2
20220924024543 64 221 3.0 3.0 0.00 0.00 0.00 61 1011.1
20220924024041 65 221 7.0 8.0 0.00 0.00 0.00 60 1011.1
20220924023539 64 184 4.0 6.0 0.00 0.00 0.00 59 1011.1
20220924023037 64 257 5.0 6.0 0.00 0.00 0.00 60 1011.3
20220924022538 61 206 3.0 3.0 0.00 0.00 0.00 68 1011.3
20220924022037 64 253 9.0 11.0 0.00 0.00 0.00 63 1011.4
20220924021535 65 261 4.0 6.0 0.00 0.00 0.00 59 1011.4
20220924021034 64 230 2.0 3.0 0.00 0.00 0.00 62 1011.5
20220924020533 64 261 5.0 6.0 0.00 0.00 0.00 62 1011.3
20220924020032 64 232 2.0 3.0 0.00 0.00 0.00 60 1011.4
20220924015532 67 171 7.0 11.0 0.00 0.00 0.00 60 1011.5
20220924015030 65 220 7.0 8.0 0.00 0.00 0.00 56 1011.6
20220924014531 64 194 6.0 9.0 0.00 0.00 0.00 60 1011.8
20220924014029 64 258 5.0 7.0 0.00 0.00 0.00 62 1011.8
20220924013528 67 174 4.0 5.0 0.00 0.00 0.00 58 1011.8
20220924013026 65 261 5.0 8.0 0.00 0.00 0.00 57 1011.8
20220924012526 65 199 6.0 8.0 0.00 0.00 0.00 59 1011.9
20220924012025 65 328 3.0 3.0 0.00 0.00 0.00 59 1012.0
20220924011523 63 244 5.0 10.0 0.00 0.00 0.00 61 1011.9
20220924011023 62 286 4.0 7.0 0.00 0.00 0.00 66 1012.0
20220924010524 63 245 8.0 10.0 0.00 0.00 0.00 65 1012.0
20220924010022 65 210 6.0 8.0 0.00 0.00 0.00 63 1011.9
20220924005520 65 292 5.0 7.0 0.00 0.00 0.00 64 1012.1
20220924005017 65 226 6.0 8.0 0.00 0.00 0.00 64 1011.9
20220924004515 65 239 3.0 5.0 0.00 0.00 0.00 65 1012.0
20220924004014 63 215 4.0 6.0 0.00 0.00 0.00 66 1012.0
20220924003515 64 235 6.0 7.0 0.00 0.00 0.00 67 1012.3
20220924003014 63 230 5.0 6.0 0.00 0.00 0.00 69 1012.1
20220924002515 62 201 3.0 3.0 0.00 0.00 0.00 69 1012.1
20220924002013 62 224 3.0 5.0 0.00 0.00 0.00 68 1012.5
20220924001513 64 210 5.0 7.0 0.00 0.00 0.00 68 1012.5
20220924001012 62 228 4.0 5.0 0.00 0.00 0.00 70 1012.4
20220924000511 63 238 6.0 7.0 0.00 0.00 0.00 68 1012.3
20220924000009 63 225 3.0 5.0 0.00 0.00 0.00 67 1012.5
20220923235509 63 308 5.0 6.0 0.00 0.00 0.00 67 1012.4
20220923235009 61 216 3.0 5.0 0.00 0.00 0.00 70 1012.4
20220923234508 60 231 3.0 5.0 0.00 0.00 0.00 74 1012.5
20220923234007 61 200 3.0 3.0 0.00 0.00 0.00 73 1012.8
20220923233506 64 237 3.0 5.0 0.00 0.00 0.00 69 1012.6
20220923233006 62 301 1.0 2.0 0.00 0.00 0.00 70 1012.7
20220923232505 60 221 3.0 5.0 0.00 0.00 0.00 74 1012.8
20220923232003 58 200 4.0 5.0 0.00 0.00 0.00 77 1012.7
20220923231502 59 218 3.0 6.0 0.00 0.00 0.00 76 1012.8
20220923231001 59 211 2.0 2.0 0.00 0.00 0.00 76 1012.9
20220923230501 60 269 2.0 3.0 0.00 0.00 0.00 77 1012.8
20220923230001 59 184 3.0 6.0 0.00 0.00 0.00 78 1013.0
20220923225459 57 246 2.0 2.0 0.00 0.00 0.00 81 1012.9
20220923224958 57 245 2.0 2.0 0.00 0.00 0.00 81 1012.8
20220923224458 57 190 3.0 3.0 0.00 0.00 0.00 80 1012.9
20220923223958 57 247 2.0 2.0 0.00 0.00 0.00 81 1012.9
20220923223457 57 233 1.0 1.0 0.00 0.00 0.00 82 1012.9
20220923222955 57 242 6.0 8.0 0.00 0.00 0.00 81 1013.0
20220923222454 57 178 3.0 3.0 0.00 0.00 0.00 82 1012.8
20220923221954 57 244 5.0 6.0 0.00 0.00 0.00 82 1012.7
20220923221452 57 238 4.0 5.0 0.00 0.00 0.00 82 1012.6
20220923220952 57 242 1.0 1.0 0.00 0.00 0.00 82 1012.8
20220923220450 57 249 1.0 1.0 0.00 0.00 0.00 83 1012.7
20220923215950 57 260 0.0 0.0 0.00 0.00 0.00 84 1012.8
20220923215449 58 303 2.0 2.0 0.00 0.00 0.00 84 1012.7
20220923214949 57 275 0.0 1.0 0.00 0.00 0.00 84 1012.7
20220923214448 57 267 0.0 0.0 0.00 0.00 0.00 85 1012.7
20220923213947 56 234 2.0 2.0 0.00 0.00 0.00 89 1012.7
20220923213446 55 301 2.0 2.0 0.00 0.00 0.00 92 1012.7
20220923212946 55 261 0.0 0.0 0.00 0.00 0.00 96 1012.7
20220923212446 55 265 0.0 0.0 0.00 0.00 0.00 97 1012.5
20220923211944 54 265 0.0 0.0 0.00 0.00 0.00 98 1012.3
20220923211444 54 268 0.0 0.0 0.00 0.00 0.00 98 1012.3
20220923210944 54 279 0.0 0.0 0.00 0.00 0.00 98 1012.3
20220923210442 54 281 0.0 0.0 0.00 0.00 0.00 98 1012.4
20220923205940 54 249 0.0 0.0 0.00 0.00 0.00 99 1012.3
20220923205440 54 269 0.0 0.0 0.00 0.00 0.00 99 1011.9
20220923204940 54 267 0.0 0.0 0.00 0.00 0.00 99 1012.1
20220923204438 54 262 0.0 0.0 0.00 0.00 0.00 99 1012.1
20220923203938 53 266 0.0 0.0 0.00 0.00 0.00 99 1011.9
20220923203438 53 272 0.0 0.0 0.00 0.00 0.00 99 1012.0
20220923202937 53 265 0.0 0.0 0.00 0.00 0.00 99 1011.9
20220923202437 53 258 0.0 0.0 0.00 0.00 0.00 99 1011.9
20220923201936 53 254 0.0 0.0 0.00 0.00 0.00 98 1011.9
20220923201435 53 237 1.0 1.0 0.00 0.00 0.00 98 1011.8
20220923200935 52 262 0.0 0.0 0.00 0.00 0.00 98 1011.6
20220923200435 53 258 0.0 0.0 0.00 0.00 0.00 98 1011.7
20220923195935 53 273 0.0 0.0 0.00 0.00 0.00 98 1011.5
20220923195435 53 298 0.0 0.0 0.00 0.00 0.00 98 1011.7
20220923194935 53 244 0.0 1.0 0.00 0.00 0.00 98 1011.7
20220923194435 53 261 0.0 0.0 0.00 0.00 0.00 98 1011.7